Probability
0 0 0 0 0 0 0 0 0 0 0 0 0 0 0 0 0 0 0 0 0 0 0 0 0 0 0 0 0 0 0 0 0 0 0 0 0 0 0 0 0 0 0
0 0 0 0 0 0 0 0 0 0 0 0 0 0 0 0 0 0 0 0 0 0 0 0 0 0 0 0 0 0 0 0 0 0 0 0 0 0 0 0 0 0 0
0 0 0 0 0 0 0 0 0 0 0 0 0 0 0 0 0 0 0 0 0 0 0 0 0 0 0 0 0 0 0 0 0 0 0 0 0 0 0 0 0 0 0
0 0 0 0 0 0 0 0 0 0 0 0 0 0 0 0 0 0 0 0 0 0 0 0 0 0 0 0 0 0 0 0 0 0 0 0 0 0 0 0 0 0 0
0 0 0 0 0 0 0 0 0 0 0 0 0 0 0 0 0 0 0 0 0 0 0 0 0 0 0 0 0 0 0 0 0 0 0 0 0 0 0 0 0 0 0
0 0 0 0 0 0 0 0 0 0 0 0 0 0 0 0 0 0 0 0 0 0 0 0 0 0 0 0 0 0 0 0 0 0 0 0 0 0 0 0 0 0 0
0 0 0 0 0 0 0 0 0 0 0 0 0 0 0 0 0 0 0 0 0 0 0 0 0 0 0 0 0 0 0 0 0 0 0 0 0 0 0 0 0 0 0
0 0 0 0 0 0 0 0 0 0 0 0 0 0 0 0 0 0 0 0 0 0 0 0 0 0 0 0 0 0 0 0 0 0 0 0 0 0 0 0 0 0 0
0 0 0 0 0 0 0 0 0 0 0 0 0 0 0 0 0 0 0 0 0 0 0 0 0 0 0 0 0 0 0 0 0 0 0 0 0 0 0 0 0 0 0
0 0 0 0 0 0 0 0 0 0 0 0 0 0 0 0 0 0 0 0 0 0 0 0 0 0 0 0 0 0 0 0 0 0 0 0 0 0 0 0 0 0 0
0 0 0 0 0 0 0 0 0 0 0 0 0 0 0 0 0 0 0 0 0 0 0 0 0 0 0 0 0 0 0 0 0 0 0 0 0 0 0 0 0 0 0
0 0 0 0 0 0 0 0 0 0 0 0 0 0 0 0 0 0 0 0 0 0 0 0 0 0 0 0 0 0 0 0 0 0 0 0 0 0 0 0 0 0 0
0 0 0 0 0 0 0 0 0 0 0 0 0 0 0 0 0 0 0 0 0 0 0 0 0 0 0 0 0 0 0 0 0 0 0 0 0 0 0 0 0 0 0
0 0 0 0 0 0 0 0 0 0 0 0 0 0 0 0 0 0 0 0 0 0 0 0 0 0 0 0 0 0 0 0 0 0 0 0 0 0 0 0 0 0 0
0 0 0 0 0 0 0 0 0 0 0 0 0 0 0 0 0 0 0 0 0 0 0 0 0 0 0 0 0 0 0 0 0 0 0 0 0 0 0 0 0 0 0
0 0 0 0 0 0 0 0 0 0 0 0 0 0 0 0 0 0 0 0 0 0 0 0 0 0 0 0 0 0 0 0 0 0 0 0 0 0 0 0 0 0 0
0 0 0 0 0 0 0 0 0 0 0 0 0 0 0 0 0 0 0 0 0 0 0 0 0 0 0 0 0 0 0 0 0 0 0 0 0 0 0 0 0 0 0
0 0 0 0 0 0 0 0 0 0 0 0 0 0 0 0 0 0 0 0 0 0 0 0 0 0 0 0 0 0 0 0 0 0 0 0 0 0 0 0 0 0 0
0 0 0 0 0 0 0 0 0 0 0 0 0 0 0 0 0 0 0 0 0 0 0 0 0 0 0 0 0 0 0 0 0 0 0 0 0 0 0 0 0 0 0
0 0 0 0 0 0 0 0 0 0 0 0 0 0 0 0 0 0 0 0 0 0 0 0 0 0 0 0 0 0 0 0 0 0 0 0 0 0 0 0 0 0 0
0 0 0 0 0 0 0 0 0 0 0 0 0 0 0 0 0 0 0 0 0 0 0 0 0 0 0 0 0 0 0 0 0 0 0 0 0 0 0 0 0 0 0
0 0 0 0 0 0 0 0 0 0 0 0 0 0 0 0 0 0 0 0 0 0 0 0 0 0 0 0 0 0 0 0 0 0 0 0 0 0 0 0 0 0 0
0 0 0 0 0 0 0 0 0 0 0 0 0 0 0 0 0 0 0 0 0 0 0 0 0 0 0 0 0 0 0 0 0 0 0 0 0 0 0 0 0 0 0
0 0 0 0 0 0 0 0 0 0 0 0 0 0 0 0 0 0 0 0 0 0 0 0 0 0 0 0 0 0 0 0 0 0 0 0 0 0 0 0 0 0 0
0 0 0 0 0 0 0 0 0 0 0 0 0 0 0 0 0 0 0 0 0 0 0 0 0 0 0 0 0 0 0 0 0 0 0 0 0 0 0 0 0 0 0
0 0 0 0 0 0 0 0 0 0 0 0 0 0 0 0 0 0 0 0 0 0 0 0 0 0 0 0 0 0 0 0 0 0 0 0 0 0 0 0 0 0 0
Wind_Speed
13 13 15 17 17 18 19 19 19 19 16 13 14 13 13 12 11 11 15 15 15 16 14 12 13 13 12 13 14 13 14 11 11 11 11 12 14 14 12 11 11 12 12
14 14 15 16 16 17 17 18 18 18 17 14 13 12 13 12 11 12 14 15 16 16 13 14 13 13 13 14 14 14 11 11 10 9 10 10 12 13 13 12 12 13 11
14 14 14 15 16 17 17 16 18 17 17 17 12 12 11 11 11 13 12 15 17 16 15 15 14 14 13 12 14 14 14 12 11 10 9 9 9 8 10 13 13 13 12
13 13 14 16 16 16 15 16 17 17 16 16 14 17 13 13 15 13 13 17 16 16 16 15 15 15 13 14 14 13 12 13 11 10 10 12 13 11 9 8 10 13 13
13 13 13 14 15 15 14 15 16 16 16 16 16 15 14 13 13 14 16 16 15 15 16 16 15 15 13 15 16 15 14 11 11 10 10 12 12 15 13 12 9 9 9
13 12 12 13 14 14 14 14 16 16 16 17 16 16 17 18 18 18 17 15 13 13 16 17 16 16 15 15 16 15 16 13 13 12 11 11 11 11 12 14 14 12 10
12 12 13 14 15 15 15 15 16 16 17 17 17 17 17 18 17 17 16 16 14 13 17 17 16 15 16 17 16 16 15 15 15 13 11 11 12 12 12 13 13 14 11
11 12 13 13 15 15 15 15 16 16 17 17 17 17 17 13 13 16 16 15 14 15 18 19 18 18 18 17 16 14 15 13 13 14 14 11 11 12 12 12 12 13 12
11 12 12 13 14 15 15 16 16 17 17 17 18 17 17 16 16 17 16 14 15 16 19 19 18 18 18 17 17 13 15 15 13 13 13 12 10 11 11 11 12 12 13
11 12 12 13 14 14 14 15 16 16 17 17 16 14 16 16 17 16 17 17 18 18 19 19 19 18 18 17 16 15 15 16 14 12 12 11 9 10 10 11 11 11 12
11 12 12 12 13 14 14 15 15 16 16 16 16 16 16 16 16 15 17 17 18 19 19 19 19 19 18 17 16 15 16 16 15 14 13 12 11 9 9 9 10 10 10
11 12 12 13 13 14 14 15 15 16 16 16 16 16 16 16 16 16 17 18 18 18 18 18 19 18 18 18 16 16 15 15 15 15 14 12 10 11 9 8 10 10 11
12 12 12 13 13 14 14 14 15 15 15 16 16 16 16 16 17 17 17 18 18 18 18 18 18 18 18 18 17 14 13 13 13 13 13 12 11 10 7 7 7 7 7
13 13 13 13 13 13 14 14 15 15 15 15 16 16 16 17 17 17 17 17 17 17 18 18 17 18 18 17 17 12 11 12 12 13 13 12 12 12 9 5 5 4 5
13 13 14 14 14 14 14 14 15 15 15 15 15 16 16 16 16 16 17 17 17 17 17 17 17 17 16 16 20 10 10 11 12 13 13 13 17 18 13 5 3 2 2
13 13 14 14 14 15 14 14 14 14 14 14 15 15 16 16 16 16 16 17 17 17 17 17 17 18 14 25 28 14 9 10 11 12 13 13 14 18 20 19 17 13 6
13 13 14 14 14 14 14 14 14 15 14 14 14 15 15 16 16 16 16 16 16 16 16 16 16 17 19 27 28 19 10 10 11 12 12 10 12 14 12 16 20 21 24
12 12 12 13 14 13 13 13 14 14 14 14 14 15 15 16 17 16 16 15 14 14 14 15 16 16 18 27 28 21 10 9 11 11 12 11 11 12 13 12 14 15 18
10 11 11 13 13 13 13 13 14 14 13 14 15 15 16 16 17 17 16 15 14 14 14 14 15 16 18 24 28 19 9 8 10 11 12 11 12 19 19 14 13 14 13
9 10 12 12 12 13 13 13 14 14 15 16 16 17 16 16 17 17 16 14 14 13 14 14 14 15 16 22 26 21 8 8 8 10 11 16 19 22 21 14 13 14 12
10 11 12 11 11 12 13 14 14 15 16 17 17 17 16 16 15 15 14 14 13 13 13 13 13 13 15 19 24 22 10 9 8 8 8 12 23 24 23 19 14 15 12
10 11 11 12 12 11 12 14 15 16 16 17 17 17 16 14 13 14 13 13 12 12 11 11 12 10 12 16 19 22 18 13 8 6 7 12 22 23 23 17 18 19 14
10 10 11 13 12 12 12 15 16 16 17 17 17 16 16 14 14 14 13 12 11 10 10 9 8 9 10 12 18 19 19 18 11 9 15 18 20 17 15 20 21 16 11
9 10 11 12 13 13 13 14 15 16 16 17 16 15 15 14 14 11 10 10 10 10 10 7 7 8 9 9 10 11 11 12 9 9 12 16 18 14 15 15 13 11 11
9 9 10 12 13 14 14 14 15 15 16 16 15 15 14 14 13 12 11 11 10 11 11 8 7 7 8 11 16 13 10 9 9 7 7 8 9 9 9 9 9 9 9
9 9 10 12 13 14 14 15 15 15 16 15 15 13 12 12 11 11 11 13 14 16 16 14 11 8 10 14 16 16 17 16 14 10 8 8 8 9 9 9 9 9 9
Wind_Direction
12 11 8 6 1 358 356 355 353 351 351 348 343 340 338 336 335 337 335 335 334 334 331 328 327 326 322 320 316 316 311 306 303 291 277 261 251 248 246 243 244 239 236
3 4 2 1 358 355 354 352 351 348 349 347 338 335 330 330 333 333 331 333 333 332 331 331 328 324 320 316 317 317 310 305 301 300 292 268 252 237 237 239 238 240 237
356 357 357 357 356 356 354 350 348 345 347 344 339 336 334 333 337 336 332 332 330 329 328 329 328 322 318 312 311 309 303 303 302 288 281 278 262 259 232 231 235 235 235
355 354 355 355 354 353 351 348 346 344 346 344 343 342 340 339 336 333 327 327 327 326 326 326 326 321 316 309 305 302 297 293 289 287 271 268 282 282 264 232 231 237 236
354 353 355 352 350 350 350 347 344 345 346 345 344 341 339 336 332 332 329 330 327 325 325 326 324 320 314 309 304 300 292 282 278 277 278 280 274 263 264 260 247 230 231
352 349 350 350 349 350 350 347 345 345 346 345 344 342 339 337 334 336 333 332 327 325 327 326 323 319 314 311 307 301 294 284 273 268 265 264 265 263 256 252 251 247 235
348 346 348 350 349 349 349 346 345 345 346 345 344 340 339 336 334 335 331 330 327 327 326 325 321 319 315 312 309 305 297 290 279 268 262 260 259 263 265 264 256 251 245
349 348 349 348 348 347 346 345 344 343 345 344 342 339 339 335 331 331 328 327 325 324 323 323 320 318 317 316 314 311 308 298 289 275 265 259 257 255 254 256 259 255 246
348 346 347 349 348 346 346 344 342 342 343 342 341 339 338 335 332 329 327 326 325 323 324 323 321 319 319 319 318 314 316 313 302 287 272 261 257 253 251 249 248 251 248
348 347 348 349 348 345 343 343 343 341 340 341 340 336 336 335 332 328 328 328 326 325 324 324 323 321 321 321 319 318 320 322 315 303 288 271 261 257 250 245 244 244 249
348 348 349 348 346 345 344 343 343 341 341 341 339 337 337 335 333 332 330 329 327 327 326 325 324 323 323 324 319 319 324 326 322 319 313 301 283 268 257 249 242 239 240
348 347 347 345 345 344 343 342 341 341 340 339 337 336 336 337 336 335 333 331 329 328 327 326 325 325 326 326 320 320 327 331 329 328 324 320 312 289 268 254 244 238 233
348 347 347 345 344 342 340 339 339 339 338 337 335 336 337 338 336 335 333 333 331 330 330 328 327 327 328 326 322 319 331 335 334 333 331 332 329 316 291 265 247 239 233
347 347 345 344 342 339 338 336 337 338 336 335 335 336 336 335 334 333 333 334 333 333 333 331 329 328 327 326 324 321 340 341 340 341 341 341 341 335 317 289 263 242 229
347 346 343 340 338 337 335 335 334 334 333 332 333 331 330 330 330 331 333 334 334 334 333 333 333 332 330 328 329 334 349 347 346 347 347 347 353 356 359 356 338 290 237
344 343 340 337 335 334 332 331 327 327 326 325 325 326 327 328 328 328 332 334 334 333 334 334 334 335 334 332 339 353 351 351 351 350 350 351 357 3 8 27 42 41 36
342 339 335 332 330 329 328 323 321 321 320 319 319 320 322 324 324 325 328 332 331 331 331 331 333 334 334 337 342 352 349 352 354 353 353 357 -0 14 12 23 36 39 42
337 331 328 325 324 324 321 315 315 313 314 315 315 317 320 319 320 322 324 328 329 327 327 328 331 333 335 339 341 348 349 353 355 356 355 359 10 23 30 32 38 41 39
331 325 324 321 321 320 318 316 312 313 313 313 315 318 318 317 319 319 321 326 326 323 325 328 331 335 337 341 344 352 348 355 357 359 4 16 31 37 38 36 40 42 37
332 327 323 321 321 322 321 315 315 318 319 319 318 318 320 320 319 317 321 323 322 323 325 326 331 336 339 343 349 359 353 358 359 2 10 35 47 45 43 39 39 41 37
333 329 324 321 321 323 319 315 318 322 323 321 320 321 323 322 318 319 320 319 319 322 324 326 331 338 344 346 351 2 1 356 357 5 19 40 48 45 44 44 42 43 42
334 331 326 322 324 321 319 319 324 326 325 323 323 325 325 323 320 322 322 322 322 321 324 327 333 341 345 350 352 1 8 10 4 15 31 45 50 48 45 43 40 40 40
331 329 324 318 323 327 327 326 327 328 326 325 327 326 325 325 326 327 327 327 325 321 318 318 330 340 345 349 357 5 11 22 30 41 57 55 51 46 42 40 39 37 36
331 327 323 324 326 330 333 331 329 329 327 327 328 328 327 328 330 331 332 330 327 324 325 332 340 340 345 355 5 9 11 17 37 41 46 52 53 50 44 40 37 36 37
326 325 323 319 324 332 333 334 333 333 331 329 330 330 330 333 336 339 338 338 337 340 349 351 347 343 351 14 24 23 19 27 38 43 43 41 40 41 40 40 38 36 35
320 320 320 324 329 332 333 336 338 337 333 333 336 335 336 341 344 342 342 347 348 351 358 360 359 358 13 30 35 33 35 40 46 48 45 42 38 36 34 34 34 33 34